False Pass, AK

4:48 PM AKST on January 19, 2017 (GMT -0900)
False Pass

Weather History for PAKF - October, 2013

Change the Weather History Date:

Friday, October 11, 2013

  Actual Average (PACD) Record (PACD)
Temperature  
Mean Temperature 47 °F -  
Max Temperature 46 °F 46 °F 54 °F (1960)
Min Temperature 44 °F 36 °F 25 °F (2000)
Degree Days  
Heating Degree Days 18    
Moisture  
Dew Point 44 °F    
Average Humidity 92    
Maximum Humidity 100    
Minimum Humidity 79    
Precipitation  
Precipitation 1.39 in - - ()
Sea Level Pressure  
Sea Level Pressure 29.31 in    
Wind  
Wind Speed 17 mph (ESE)    
Max Wind Speed 45 mph    
Max Gust Speed 66 mph    
Visibility 6 miles    
Events Rain    
Averages and records for this station are not official NWS values.
T = Trace of Precipitation, MM = Missing Value Source: NWS Daily Summary

Daily Weather History Graph

Daily Weather History Graph

Search for Another Location

Airport or City:

Trip Planner

Search our weather history database for the weather conditions in past years. The results will help you decide how hot, cold, wet, or windy it might be!

Date:

Astronomy

Oct. 11, 2013 Rise Set
Actual Time 8:16 AM HDT 7:03 PM HDT
Civil Twilight 7:39 AM HDT 7:39 PM HDT
Nautical Twilight 6:58 AM HDT 8:21 PM HDT
Astronomical Twilight 6:15 AM HDT 9:03 PM HDT
Moon 3:37 PM HDT (10/11) No Moon Set
Length of Visible Light 11h 59m
Length of Day
10h 47m
Waxing Crescent, 49% of the Moon is Illuminated
Oct 11
Waxing Crescent
Oct 11
First Quarter
Oct 18
Full
Oct 26
Last Quarter
Nov 3
New

Hourly Weather History & Observations

Time (HDT) Temp. Windchill Dew Point Humidity Pressure Visibility Wind Dir Wind Speed Gust Speed Precip Events Conditions
12:01 AM 45.0 °F 40.6 °F 43.0 °F 93% 29.94 in 9.0 mi SE 8.1 mph - N/A   Overcast
12:22 AM 44.6 °F 39.7 °F 42.8 °F 93% 29.65 in 10.0 mi ESE 9.2 mph - 0.00 in Rain Light Rain
1:01 AM 45.0 °F 39.7 °F 43.0 °F 93% 29.91 in 10.0 mi ESE 10.4 mph - 0.00 in   Overcast
1:33 AM 44.6 °F 39.2 °F 42.8 °F 93% 29.64 in 10.0 mi ESE 10.4 mph - N/A   Scattered Clouds
2:01 AM 45.0 °F 39.3 °F 43.0 °F 93% 29.91 in 10.0 mi SE 11.5 mph - N/A   Partly Cloudy
3:01 AM 46.0 °F 40.2 °F 43.0 °F 89% 29.90 in 10.0 mi SE 12.7 mph 20.7 mph 0.00 in Rain Light Rain
3:15 AM 46.4 °F 40.7 °F 42.8 °F 87% 29.61 in 10.0 mi SE 12.7 mph 23.0 mph 0.00 in   Overcast
4:01 AM 46.4 °F 41.5 °F 41.0 °F 81% 29.59 in 10.0 mi SSE 10.4 mph 23.0 mph 0.00 in   Overcast
4:07 AM 46.0 °F 41.4 °F 42.1 °F 86% 29.86 in 10.0 mi SSE 9.2 mph 17.3 mph 0.00 in   Overcast
4:31 AM 46.4 °F 41.9 °F 42.8 °F 87% 29.58 in 10.0 mi SE 9.2 mph - N/A   Overcast
5:01 AM 46.4 °F 43.5 °F 42.8 °F 87% 29.57 in 9.0 mi SSE 5.8 mph - 0.00 in Rain Light Rain
5:07 AM 46.4 °F 42.9 °F 42.8 °F 87% 29.56 in 10.0 mi SE 6.9 mph - 0.00 in Rain Light Rain
5:26 AM 46.0 °F 42.5 °F 43.0 °F 89% 29.83 in 10.0 mi SE 6.9 mph - 0.00 in   Overcast
5:39 AM 46.4 °F 41.9 °F 44.6 °F 93% 29.55 in 10.0 mi SE 9.2 mph - N/A   Overcast
6:01 AM 46.0 °F 41.0 °F 44.1 °F 93% 29.81 in 10.0 mi SE 10.4 mph 18.4 mph N/A   Overcast
7:01 AM 46.4 °F 42.4 °F 42.8 °F 87% 29.50 in 9.0 mi SE 8.1 mph - 0.02 in Rain Light Rain
7:45 AM 46.4 °F 40.1 °F 44.6 °F 93% 29.47 in 8.0 mi ESE 15.0 mph 24.2 mph 0.10 in Rain Light Rain
8:01 AM 46.4 °F 39.8 °F 42.8 °F 87% 29.46 in 9.0 mi ESE 16.1 mph 28.8 mph 0.10 in Rain Light Rain
8:18 AM 46.0 °F 39.6 °F 42.1 °F 86% 29.73 in 10.0 mi ESE 15.0 mph 19.6 mph 0.11 in Rain Light Rain
9:01 AM 45.0 °F 38.9 °F 42.1 °F 90% 29.70 in 10.0 mi ESE 12.7 mph 23.0 mph 0.01 in Rain Light Rain
10:01 AM 44.1 °F 37.4 °F 42.1 °F 93% 29.65 in 6.0 mi East 13.8 mph 23.0 mph 0.07 in Rain Rain
10:15 AM 44.6 °F 37.8 °F 42.8 °F 93% 29.34 in 5.0 mi East 15.0 mph 21.9 mph 0.03 in Rain Rain
11:01 AM 45.0 °F 36.0 °F 43.0 °F 93% 29.56 in 4.0 mi East 25.3 mph 32.2 mph 0.12 in Rain Rain
11:19 AM 44.6 °F 35.9 °F 44.6 °F 100% 29.25 in 2.5 mi East 23.0 mph 36.8 mph 0.02 in Rain Rain
11:30 AM 46.4 °F 36.9 °F 44.6 °F 93% 29.22 in 2.0 mi East 32.2 mph 39.1 mph 0.05 in Rain Rain
11:42 AM 46.4 °F 37.2 °F 44.6 °F 93% 29.20 in 1.8 mi ENE 29.9 mph 43.7 mph 0.09 in Rain Rain
12:01 PM 46.0 °F 36.5 °F 45.0 °F 96% 29.44 in 1.8 mi East 31.1 mph 41.4 mph 0.14 in Rain Rain
12:08 PM 46.4 °F 37.0 °F 44.6 °F 93% 29.15 in 2.0 mi ENE 31.1 mph 41.4 mph 0.02 in Rain Rain
12:20 PM 46.4 °F 37.2 °F 46.4 °F 100% 29.14 in 1.8 mi ENE 29.9 mph 40.3 mph 0.05 in Rain Rain
12:39 PM 48.2 °F - 46.4 °F 93% 29.11 in 2.0 mi ENE 27.6 mph 44.9 mph 0.09 in Rain Rain
12:48 PM 50.0 °F - 48.2 °F 94% 29.11 in 4.0 mi ESE 15.0 mph 40.3 mph 0.10 in Rain Light Rain
1:01 PM 50.0 °F - 48.9 °F 96% 29.36 in 3.0 mi ESE 19.6 mph 28.8 mph 0.13 in Rain Rain
1:10 PM 50.0 °F - 48.2 °F 94% 29.08 in 4.0 mi ESE 20.7 mph 32.2 mph 0.02 in Rain Rain
2:01 PM 50.0 °F - 48.9 °F 96% 29.31 in 7.0 mi ESE 18.4 mph 38.0 mph 0.07 in   Overcast
3:01 PM 50.0 °F - 48.9 °F 96% 29.22 in 3.0 mi ESE 21.9 mph 34.5 mph 0.02 in Rain Light Rain
3:10 PM 50.0 °F - 48.2 °F 94% 28.94 in 2.5 mi ESE 18.4 mph 33.4 mph 0.01 in Rain Light Rain
3:19 PM 50.0 °F - 48.2 °F 94% 28.92 in 4.0 mi ESE 21.9 mph 32.2 mph 0.02 in Rain Light Rain
3:51 PM 48.2 °F - 46.4 °F 93% 28.89 in 2.0 mi ESE 27.6 mph 39.1 mph 0.03 in Rain Rain
4:01 PM 48.0 °F - 46.0 °F 93% 29.14 in 2.0 mi ESE 18.4 mph 36.8 mph 0.04 in Rain Light Rain
4:15 PM 48.2 °F - 46.4 °F 93% 28.85 in 2.0 mi ESE 16.1 mph 28.8 mph 0.01 in Rain Light Rain
4:24 PM 48.2 °F - 46.4 °F 93% 28.83 in 2.0 mi ESE 21.9 mph 33.4 mph 0.02 in Rain Light Rain
5:01 PM 48.0 °F - 46.9 °F 96% 29.05 in 2.5 mi ESE 24.2 mph 34.5 mph 0.03 in Rain Light Rain
5:52 PM 48.2 °F - 48.2 °F 100% 28.74 in 1.8 mi SSE 16.1 mph 35.7 mph 0.09 in Rain Light Rain
6:01 PM 48.9 °F - 48.0 °F 97% 29.02 in 1.8 mi SSE 21.9 mph 38.0 mph 0.11 in Rain Rain
6:08 PM 48.2 °F - 48.2 °F 100% 28.75 in 2.5 mi SE 25.3 mph 42.6 mph 0.03 in Rain Rain
6:21 PM 48.2 °F - 48.2 °F 100% 28.75 in 1.8 mi SE 29.9 mph 39.1 mph 0.05 in Rain Light Rain
6:40 PM 46.4 °F 36.0 °F 44.6 °F 93% 28.78 in 1.2 mi SSE 39.1 mph 55.2 mph 0.08 in Rain Rain
6:54 PM 46.4 °F 35.8 °F 42.8 °F 87% 28.80 in 1.5 mi SSE 40.3 mph 50.6 mph 0.15 in Rain Heavy Rain
7:01 PM 46.0 °F 35.6 °F 43.0 °F 89% 29.08 in 1.5 mi SSE 38.0 mph 55.2 mph 0.19 in Rain Heavy Rain
7:39 PM 44.6 °F 32.8 °F 42.8 °F 93% 28.83 in 2.5 mi SSE 44.9 mph 59.8 mph 0.27 in Rain Rain
8:01 PM 45.0 °F 33.6 °F 42.1 °F 90% 29.14 in 2.5 mi SSE 42.6 mph 59.8 mph 0.33 in Rain Light Rain
8:09 PM 46.4 °F 35.5 °F 42.8 °F 87% 28.86 in 5.0 mi SSE 43.7 mph 57.5 mph 0.01 in Rain Light Rain
9:01 PM 46.0 °F 35.8 °F 39.9 °F 79% 29.18 in 10.0 mi SSE 36.8 mph 54.1 mph 0.02 in Rain Light Rain
10:01 PM 46.0 °F 35.0 °F 39.9 °F 79% 29.24 in 9.0 mi SSE 43.7 mph 65.6 mph 0.00 in   Overcast
11:01 PM 46.0 °F 37.6 °F 39.9 °F 79% 29.26 in 10.0 mi South 24.2 mph 52.9 mph 0.00 in   Overcast